• In Hungary
  • List of Countries
  • For 7 days
  • Water Temperature
  • Satellite Maps
  • Weather Map
  • News
  • Weather Widgets
  • user-avatar
    Login

    Hourly Weather Lahnevo

    Today, 23 June, Saturday

    Time Temperature Precipitation Wind Pressure Humidity
    00:00 +13°C° 0 mm 2 mps 744 mmHg 96%
    01:00 +12°C° 0 mm 2 mps 744 mmHg 95%
    02:00 +12°C° 0 mm 1 mps 744 mmHg 96%
    03:00 +12°C° 0 mm 2 mps 745 mmHg 94%
    04:00 +12°C° 0 mm 2 mps 745 mmHg 91%
    05:00 +13°C° 0 mm 2 mps 745 mmHg 89%
    06:00 +15°C° 0 mm 2 mps 745 mmHg 79%
    07:00 +18°C° 0 mm 1 mps 746 mmHg 69%
    08:00 +18°C° 0 mm 2 mps 746 mmHg 58%
    09:00 +21°C° 0 mm 1 mps 746 mmHg 54%
    10:00 +22°C° 0 mm 1 mps 746 mmHg 50%
    11:00 +23°C° 0 mm 1 mps 746 mmHg 46%
    12:00 +23°C° 0 mm 1 mps 746 mmHg 48%
    13:00 +22°C° 0 mm 1 mps 746 mmHg 50%
    14:00 +21°C° 0 mm 2 mps 746 mmHg 52%
    15:00 +20°C° 0.1 mm 2 mps 745 mmHg 58%
    16:00 +19°C° 0.1 mm 2 mps 745 mmHg 64%
    17:00 +18°C° 0.1 mm 3 mps 745 mmHg 70%
    18:00 +16°C° 0.3 mm 3 mps 744 mmHg 76%
    19:00 +14°C° 0.3 mm 3 mps 744 mmHg 82%
    20:00 +13°C° 0.3 mm 3 mps 744 mmHg 87%
    21:00 +12°C° 0.9 mm 3 mps 743 mmHg 90%
    22:00 +12°C° 0.9 mm 3 mps 743 mmHg 92%
    23:00 +12°C° 0.9 mm 3 mps 743 mmHg 95%

    Tomorrow, 24 June, Sunday

    Time Temperature Precipitation Wind Pressure Humidity
    00:00 +13°C° 0.2 mm 3 mps 742 mmHg 95%
    01:00 +13°C° 0.2 mm 3 mps 742 mmHg 96%
    02:00 +14°C° 0.2 mm 3 mps 742 mmHg 96%
    03:00 +16°C° 0.1 mm 3 mps 741 mmHg 96%
    04:00 +17°C° 0.1 mm 4 mps 741 mmHg 95%
    05:00 +19°C° 0.1 mm 4 mps 740 mmHg 95%
    06:00 +21°C° 0 mm 4 mps 740 mmHg 87%
    07:00 +23°C° 0 mm 5 mps 740 mmHg 79%
    08:00 +25°C° 0 mm 5 mps 740 mmHg 71%
    09:00 +26°C° 0.2 mm 5 mps 740 mmHg 69%
    10:00 +27°C° 0.2 mm 5 mps 740 mmHg 68%
    11:00 +28°C° 0.2 mm 5 mps 740 mmHg 67%
    12:00 +27°C° 0.9 mm 5 mps 741 mmHg 72%
    13:00 +26°C° 0.9 mm 5 mps 741 mmHg 77%
    14:00 +25°C° 0.9 mm 5 mps 741 mmHg 82%
    15:00 +23°C° 0.2 mm 5 mps 742 mmHg 82%
    16:00 +23°C° 0.2 mm 4 mps 742 mmHg 82%
    17:00 +22°C° 0.2 mm 4 mps 742 mmHg 81%
    18:00 +20°C° 0 mm 4 mps 743 mmHg 81%
    19:00 +19°C° 0 mm 4 mps 743 mmHg 81%
    20:00 +18°C° 0 mm 3 mps 743 mmHg 81%
    21:00 +17°C° 0 mm 3 mps 744 mmHg 83%
    22:00 +15°C° 0 mm 2 mps 744 mmHg 86%
    23:00 +14°C° 0 mm 2 mps 745 mmHg 88%

    Day after tomorrow, 25 June, Monday

    Time Temperature Precipitation Wind Pressure Humidity
    00:00 +13°C° 0 mm 2 mps 745 mmHg 91%
    01:00 +12°C° 0 mm 2 mps 745 mmHg 93%
    02:00 +10°C° 0 mm 2 mps 746 mmHg 96%
    03:00 +10°C° 0 mm 2 mps 746 mmHg 93%
    04:00 +12°C° 0 mm 2 mps 746 mmHg 90%
    05:00 +12°C° 0 mm 2 mps 747 mmHg 86%
    06:00 +14°C° 0 mm 2 mps 747 mmHg 77%
    07:00 +15°C° 0 mm 2 mps 747 mmHg 68%
    08:00 +17°C° 0 mm 2 mps 747 mmHg 59%
    09:00 +19°C° 0 mm 2 mps 748 mmHg 54%
    10:00 +20°C° 0 mm 2 mps 748 mmHg 49%
    11:00 +23°C° 0 mm 2 mps 748 mmHg 44%
    12:00 +23°C° 0 mm 2 mps 748 mmHg 43%
    13:00 +24°C° 0 mm 2 mps 748 mmHg 41%
    14:00 +25°C° 0 mm 2 mps 748 mmHg 40%
    15:00 +24°C° 0 mm 2 mps 748 mmHg 42%
    16:00 +24°C° 0 mm 2 mps 748 mmHg 45%
    17:00 +24°C° 0 mm 2 mps 748 mmHg 47%
    18:00 +22°C° 0 mm 1 mps 749 mmHg 56%
    19:00 +20°C° 0 mm 1 mps 749 mmHg 64%
    20:00 +18°C° 0 mm 1 mps 749 mmHg 72%
    21:00 +16°C° 0 mm 1 mps 750 mmHg 76%
    22:00 +15°C° 0 mm 1 mps 750 mmHg 80%
    23:00 +14°C° 0 mm 1 mps 750 mmHg 85%

    26 June, Tuesday

    Time Temperature Precipitation Wind Pressure Humidity
    00:00 +14°C° 0 mm 1 mps 750 mmHg 87%
    01:00 +13°C° 0 mm 1 mps 751 mmHg 89%
    02:00 +13°C° 0 mm 1 mps 751 mmHg 91%
    03:00 +14°C° 0 mm 1 mps 751 mmHg 88%
    04:00 +14°C° 0 mm 1 mps 752 mmHg 85%
    05:00 +15°C° 0 mm 1 mps 752 mmHg 83%
    06:00 +18°C° 0 mm 1 mps 752 mmHg 75%
    07:00 +20°C° 0 mm 1 mps 753 mmHg 67%
    08:00 +22°C° 0 mm 1 mps 753 mmHg 60%
    09:00 +23°C° 0 mm 1 mps 753 mmHg 55%
    10:00 +24°C° 0 mm 1 mps 753 mmHg 50%
    11:00 +25°C° 0 mm 2 mps 753 mmHg 45%
    12:00 +26°C° 0 mm 2 mps 753 mmHg 43%
    13:00 +26°C° 0 mm 2 mps 753 mmHg 42%
    14:00 +26°C° 0 mm 2 mps 753 mmHg 41%
    15:00 +26°C° 0 mm 2 mps 753 mmHg 43%
    16:00 +26°C° 0 mm 1 mps 753 mmHg 45%
    17:00 +26°C° 0 mm 1 mps 753 mmHg 48%
    18:00 +24°C° 0 mm 1 mps 753 mmHg 55%
    19:00 +22°C° 0 mm 1 mps 753 mmHg 63%
    20:00 +20°C° 0 mm 1 mps 753 mmHg 70%
    21:00 +19°C° 0 mm 1 mps 754 mmHg 73%
    22:00 +18°C° 0 mm 1 mps 754 mmHg 75%
    23:00 +16°C° 0 mm 1 mps 754 mmHg 78%

    27 June, Wednesday

    Time Temperature Precipitation Wind Pressure Humidity
    00:00 +15°C° 0 mm 1 mps 754 mmHg 79%
    01:00 +15°C° 0 mm 1 mps 754 mmHg 81%
    02:00 +14°C° 0 mm 1 mps 754 mmHg 82%
    03:00 +15°C° 0 mm 1 mps 754 mmHg 80%
    04:00 +16°C° 0 mm 1 mps 755 mmHg 78%
    05:00 +18°C° 0 mm 1 mps 755 mmHg 76%
    06:00 +20°C° 0 mm 1 mps 755 mmHg 69%
    07:00 +22°C° 0 mm 1 mps 755 mmHg 62%
    08:00 +24°C° 0 mm 1 mps 755 mmHg 55%
    09:00 +26°C° 0 mm 1 mps 755 mmHg 51%
    10:00 +27°C° 0 mm 1 mps 755 mmHg 46%
    11:00 +28°C° 0 mm 1 mps 755 mmHg 42%
    12:00 +28°C° 0 mm 1 mps 755 mmHg 41%
    13:00 +28°C° 0 mm 1 mps 755 mmHg 40%
    14:00 +29°C° 0 mm 1 mps 754 mmHg 39%
    15:00 +28°C° 0 mm 1 mps 754 mmHg 43%
    16:00 +27°C° 0 mm 1 mps 754 mmHg 47%
    17:00 +27°C° 0 mm 1 mps 754 mmHg 50%
    18:00 +25°C° 0 mm 1 mps 754 mmHg 56%
    19:00 +23°C° 0 mm 1 mps 754 mmHg 62%
    20:00 +21°C° 0 mm 1 mps 754 mmHg 68%
    21:00 +20°C° 0 mm 1 mps 755 mmHg 69%
    22:00 +19°C° 0 mm 1 mps 755 mmHg 71%
    23:00 +18°C° 0 mm 1 mps 755 mmHg 72%

    28 June, Thursday

    Time Temperature Precipitation Wind Pressure Humidity
    00:00 +18°C° 0 mm 1 mps 755 mmHg 73%
    01:00 +16°C° 0 mm 1 mps 755 mmHg 75%
    02:00 +16°C° 0 mm 2 mps 755 mmHg 77%
    03:00 +16°C° 0 mm 2 mps 755 mmHg 76%
    04:00 +17°C° 0 mm 2 mps 756 mmHg 76%
    05:00 +17°C° 0 mm 2 mps 756 mmHg 76%
    06:00 +19°C° 0 mm 2 mps 756 mmHg 69%
    07:00 +21°C° 0 mm 2 mps 756 mmHg 62%
    08:00 +24°C° 0 mm 2 mps 756 mmHg 54%
    09:00 +25°C° 0 mm 2 mps 756 mmHg 50%
    10:00 +26°C° 0 mm 2 mps 756 mmHg 45%
    11:00 +27°C° 0 mm 2 mps 755 mmHg 41%
    12:00 +28°C° 0 mm 2 mps 755 mmHg 40%
    13:00 +28°C° 0 mm 2 mps 755 mmHg 38%
    14:00 +29°C° 0 mm 2 mps 755 mmHg 37%
    15:00 +28°C° 0 mm 1 mps 755 mmHg 42%
    16:00 +27°C° 0 mm 1 mps 755 mmHg 47%
    17:00 +27°C° 0 mm 1 mps 754 mmHg 51%
    18:00 +25°C° 0 mm 1 mps 754 mmHg 56%
    19:00 +23°C° 0 mm 1 mps 754 mmHg 61%
    20:00 +21°C° 0 mm 2 mps 754 mmHg 66%
    21:00 +19°C° 0 mm 2 mps 755 mmHg 64%
    22:00 +18°C° 0 mm 2 mps 755 mmHg 63%
    23:00 +17°C° 0 mm 2 mps 755 mmHg 61%
    Show more